Ketchikan, AK

11:50 PM AKST on December 15, 2018 (GMT -0900)
Ketchikan International

Weather History for PAKT - September, 2018

Change the Weather History Date:

Saturday, September 1, 2018

  Actual Average Record
Temperature  
Mean Temperature 54 °F -  
Max Temperature 59 °F 62 °F 79 °F (1974)
Min Temperature 50 °F 50 °F 40 °F (1964)
Degree Days  
Heating Degree Days 10    
Growing Degree Days 4 (Base 50)    
Moisture  
Dew Point 50 °F    
Average Humidity 88    
Maximum Humidity 94    
Minimum Humidity 72    
Precipitation  
Precipitation 0.58 in - - ()
Sea Level Pressure  
Sea Level Pressure 30.01 in    
Wind  
Wind Speed 6 mph (SE)    
Max Wind Speed 15 mph    
Max Gust Speed 24 mph    
Visibility 7 miles    
Events Rain    
Averages and records for this station are not official NWS values.
T = Trace of Precipitation, MM = Missing Value Source: NWS Daily Summary

Daily Weather History Graph

Daily Weather History Graph

Search for Another Location

Airport or City:

Astronomy

Sep. 01, 2018 Rise Set
Actual Time 5:52 AM AKDT 7:39 PM AKDT
Civil Twilight 5:14 AM AKDT 8:17 PM AKDT
Nautical Twilight 4:25 AM AKDT 9:05 PM AKDT
Astronomical Twilight 3:29 AM AKDT 10:01 PM AKDT
Moon 10:20 PM AKDT (9/1) 12:56 PM AKDT (9/1)
Length of Visible Light 15h 03m
Length of Day
13h 46m
Waning Gibbous, 64% of the Moon is Illuminated
Sep 1
Waning Gibbous
Sep 2
Last Quarter
Sep 9
New
Sep 16
First Quarter
Sep 24
Full

Hourly Weather History & Observations

Time (AKDT) Temp. Dew Point Humidity Pressure Visibility Wind Dir Wind Speed Gust Speed Precip Events Conditions
12:53 AM 50.0 °F 46.0 °F 86% 30.09 in 10.0 mi Calm Calm - N/A   Scattered Clouds
1:53 AM 50.0 °F 46.9 °F 89% 30.10 in 10.0 mi South 3.5 mph - N/A   Overcast
2:53 AM 50.0 °F 46.9 °F 89% 30.11 in 10.0 mi Calm Calm - N/A   Overcast
3:53 AM 52.0 °F 48.9 °F 89% 30.11 in 10.0 mi SSE 3.5 mph - N/A   Overcast
4:53 AM 52.0 °F 48.9 °F 89% 30.11 in 10.0 mi Calm Calm - 0.00 in   Overcast
5:53 AM 50.0 °F 48.0 °F 93% 30.11 in 10.0 mi South 4.6 mph - N/A   Partly Cloudy
6:06 AM 50.0 °F 48.0 °F 93% 30.11 in 10.0 mi South 5.8 mph - N/A   Clear
6:53 AM 52.0 °F 48.0 °F 86% 30.11 in 10.0 mi Variable 3.5 mph - N/A   Scattered Clouds
7:53 AM 53.6 °F 50.0 °F 88% 30.12 in 10.0 mi SSE 3.5 mph - N/A   Scattered Clouds
8:53 AM 55.4 °F 50.0 °F 82% 30.12 in 10.0 mi SE 5.8 mph - N/A   Overcast
9:53 AM 55.4 °F 51.8 °F 88% 30.12 in 10.0 mi SE 8.1 mph - N/A   Overcast
10:53 AM 57.2 °F 51.8 °F 82% 30.12 in 10.0 mi ESE 11.5 mph - N/A   Overcast
11:53 AM 59.0 °F 50.0 °F 72% 30.10 in 10.0 mi ESE 11.5 mph - N/A   Overcast
12:53 PM 57.9 °F 50.0 °F 75% 30.09 in 10.0 mi SE 12.7 mph - N/A   Mostly Cloudy
1:53 PM 57.9 °F 51.1 °F 78% 30.08 in 10.0 mi SE 11.5 mph - N/A   Overcast
2:51 PM 55.4 °F 53.6 °F 94% 30.07 in 5.0 mi SE 9.2 mph - N/A Rain Light Rain
2:53 PM 55.4 °F 53.6 °F 94% 30.07 in 5.0 mi SE 9.2 mph - N/A Rain Light Rain
2:55 PM 55.9 °F 53.1 °F 90% 30.06 in 4.0 mi SE 9.2 mph - 0.00 in Rain Light Rain
3:53 PM 55.4 °F 51.8 °F 88% 30.03 in 5.0 mi SE 11.5 mph - N/A Rain Light Rain
4:53 PM 53.6 °F 51.8 °F 94% 30.00 in 5.0 mi SE 13.8 mph 21.9 mph N/A Rain Light Rain
5:53 PM 53.6 °F 50.0 °F 88% 29.96 in 9.0 mi SE 13.8 mph - N/A Rain Light Rain
6:53 PM 52.0 °F 50.0 °F 93% 29.95 in 4.0 mi SSE 10.4 mph - 0.02 in Rain Light Rain
7:53 PM 52.0 °F 50.0 °F 93% 29.92 in 3.0 mi SE 15.0 mph - 0.06 in Rain Rain
8:53 PM 53.1 °F 50.0 °F 89% 29.88 in 3.0 mi SE 15.0 mph 24.2 mph 0.13 in Rain Rain
9:51 PM 53.6 °F 50.0 °F 88% 29.85 in 2.0 mi SE 15.0 mph 21.9 mph 0.08 in Rain Rain
9:53 PM 53.1 °F 50.0 °F 89% 29.85 in 2.0 mi SE 15.0 mph - 0.09 in Rain Rain
10:40 PM 53.1 °F 50.0 °F 89% 29.84 in 2.0 mi SSE 12.7 mph - 0.08 in Rain Rain
10:53 PM 53.1 °F 50.0 °F 89% 29.84 in 1.8 mi SE 12.7 mph - 0.13 in Rain Rain
11:02 PM 53.1 °F 51.1 °F 93% 29.83 in 2.0 mi SSE 11.5 mph - 0.03 in Rain Rain
11:11 PM 53.1 °F 51.1 °F 93% 29.83 in 4.0 mi South 6.9 mph - 0.04 in Rain Light Rain
11:42 PM 53.1 °F 51.1 °F 93% 29.84 in 4.0 mi South 5.8 mph - 0.15 in Rain Light Rain
11:53 PM 53.1 °F 51.1 °F 93% 29.84 in 5.0 mi SSE 5.8 mph - 0.15 in Rain Light Rain